Satellite: NANOSALD
Catalog number: 37361
Epoch time:      11139.39378321
Element set:    0199
Inclination:      071.9649 deg
RA of node:       099.5789 deg
Eccentricity:    0.0029103
Arg of perigee:   244.0422 deg
Mean anomaly:     115.9005 deg
Mean motion:   14.93986826 rev/day
Decay rate:    1.03336e-03 rev/day^2
Epoch rev:           01781
Checksum:              322

Satellite: FO-70
Catalog number: 37380
Epoch time:      11139.34200668
Element set:    0166
Inclination:      071.9715 deg
RA of node:       102.9390 deg
Eccentricity:    0.0018285
Arg of perigee:   327.4639 deg
Mean anomaly:     032.5377 deg
Mean motion:   14.76348656 rev/day
Decay rate:       2.63e-06 rev/day^2
Epoch rev:           02660
Checksum:              309

/EX
SB KEPS @ AMSAT  $ORB11139.W
Orbital Elements  11139.WEATHER

HR AMSAT ORBITAL ELEMENTS FOR WEATHER SATELLITES
FROM WA5QGD FORT WORTH,TX May 19, 2011
Send Subscribe/unsubscribe to KEPS at http://www.amsat.org/mailman/listinfo/kep
BID: ORB11139.W
TO ALL RADIO AMATEURS BT

Satellite: NOAA-10
Catalog number: 16969
Epoch time:      11139.54128584
Element set:     505
Inclination:      098.6192 deg
RA of node:       169.7147 deg
Eccentricity:    0.0011813
Arg of perigee:   313.3230 deg
Mean anomaly:     046.6967 deg
Mean motion:   14.27461013 rev/day
Decay rate:        5.7e-07 rev/day^2
Epoch rev:           28356
Checksum:              307

Satellite: NOAA-11
Catalog number: 19531
Epoch time:      11139.41939656
Element set:     507
Inclination:      098.7518 deg
RA of node:       227.4261 deg
Eccentricity:    0.0010382
Arg of perigee:   271.2972 deg
Mean anomaly:     088.6974 deg
Mean motion:   14.14916048 rev/day
Decay rate:        6.4e-07 rev/day^2
Epoch rev:           16868
Checksum:              327

Satellite: NOAA-12
Catalog number: 21263
Epoch time:      11139.52334580
Element set:       2
Inclination:      098.7503 deg
RA of node:       157.4173 deg
Eccentricity:    0.0011396
Arg of perigee:   272.0245 deg
Mean anomaly:     087.9629 deg
Mean motion:   14.25711211 rev/day
Decay rate:        8.2e-07 rev/day^2
Epoch rev:            4032
Checksum:              262

Satellite: MET-3/5
Catalog number: 21655
Epoch time:      11138.81002557
Element set:     113
Inclination:      082.5574 deg
RA of node:       071.5287 deg
Eccentricity:    0.0012307
Arg of perigee:   227.3584 deg
Mean anomaly:     132.6491 deg
Mean motion:   13.17026704 rev/day
Decay rate:        5.1e-07 rev/day^2
Epoch rev:           94985
Checksum:              288

Satellite: MET-2/21
Catalog number: 22782
Epoch time:      11138.75276301
Element set:    0099
Inclination:      082.5478 deg
RA of node:       346.2350 deg
Eccentricity:    0.0022265
Arg of perigee:   177.8133 deg
Mean anomaly:     182.3130 deg
Mean motion:   13.83657652 rev/day
Decay rate:        1.8e-07 rev/day^2
Epoch rev:           89448
Checksum:              310

Satellite: OKEAN-4
Catalog number: 23317
Epoch time:      11138.95020010
Element set:    0596
Inclination:      082.5431 deg
RA of node:       040.4396 deg
Eccentricity:    0.0020771
Arg of perigee:   211.8085 deg
Mean anomaly:     148.1877 deg
Mean motion:   14.83062230 rev/day
Decay rate:       3.57e-06 rev/day^2
Epoch rev:           89621
Checksum:              278

Satellite: NOAA-14
Catalog number: 23455
Epoch time:      11139.44468000
Element set:     487
Inclination:      098.8531 deg
RA of node:       222.3654 deg
Eccentricity:    0.0009749
Arg of perigee:   006.9207 deg
Mean anomaly:     353.2098 deg
Mean motion:   14.13818552 rev/day
Decay rate:       -1.9e-07 rev/day^2
Epoch rev:           84501
Checksum:              303

Satellite: NOAA-15
Catalog number: 25338
Epoch time:      11139.37522567
Element set:     819
Inclination:      098.6513 deg
RA of node:       125.9144 deg
Eccentricity:    0.0010781
Arg of perigee:   171.0312 deg
Mean anomaly:     189.1087 deg
Mean motion:   14.24913690 rev/day
Decay rate:        2.8e-07 rev/day^2
Epoch rev:           67662
Checksum:              308

Satellite: RESURS
Catalog number: 25394
Epoch time:      11139.58452141
Element set:     799
Inclination:      098.3003 deg
RA of node:       144.1835 deg
Eccentricity:    0.0001560
Arg of perigee:   000.4924 deg
Mean anomaly:     359.6251 deg
Mean motion:   14.24233442 rev/day
Decay rate:        1.8e-07 rev/day^2
Epoch rev:           66823
Checksum:              277

Satellite: FENGYUN1
Catalog number: 25730
Epoch time:      11139.90103145
Element set:     328
Inclination:      098.8171 deg
RA of node:       101.7212 deg
Eccentricity:    0.0026022
Arg of perigee:   031.4499 deg
Mean anomaly:     328.8207 deg
Mean motion:   14.08608964 rev/day
Decay rate:        6.0e-08 rev/day^2
Epoch rev:           61908
Checksum:              276

Satellite: OKEAN-0
Catalog number: 25860
Epoch time:      11138.96753678
Element set:    0311
Inclination:      097.8806 deg
RA of node:       106.2211 deg
Eccentricity:    0.0001922
Arg of perigee:   075.9184 deg
Mean anomaly:     284.2236 deg
Mean motion:   14.73780306 rev/day
Decay rate:       2.51e-06 rev/day^2
Epoch rev:           63635
Checksum:              297

